User: anonymous   Login
Location: Taupo
(38.6830°S, 176.0830°E)
Time: 14:44:57
(UTC+13:00)
Language:

Meteor 1-27 - Orbit

View from above orbital plane
View from above orbital plane
View from above satellite
View from above satellite

Ground track
Ground track

The orbit data is extracted from the following two-line orbital elements,

1  9903U 77024A   19289.74160757  .00000280  00000-0  15521-3 0  9994
2  9903  81.2537 336.5074 0039115  44.1733 316.2549 14.08261839184935
Epoch (UTC): 16 October 2019 17:47:54
Eccentricity: 0.0039115
inclination: 81.2537°
perigee height: 837 km
apogee height: 893 km
right ascension of ascending node: 336.5074°
argument of perigee: 44.1733°
revolutions per day: 14.08261839
mean anomaly at epoch: 316.2549°
orbit number at epoch: 18493

The dashed part of the orbit path shows where the satellite is in the earth's shadow,  

DLR